Stanley, ND

2:42 PM CST on December 03, 2016 (GMT -0600)
Stanley

Weather History for K08D - April, 2014

Change the Weather History Date:

Saturday, April 26, 2014

  Actual Average (KMOT) Record (KMOT)
Temperature  
Mean Temperature 42 °F 48 °F  
Max Temperature 48 °F 60 °F 90 °F (1910)
Min Temperature 35 °F 36 °F 12 °F (1931)
Degree Days  
Heating Degree Days 24 17  
Month to date heating degree days 588  
Since 1 July heating degree days 8303  
Cooling Degree Days 0 0  
Month to date cooling degree days 0  
Year to date cooling degree days 0  
Moisture  
Dew Point 39 °F    
Average Humidity 93    
Maximum Humidity 100    
Minimum Humidity 66    
Precipitation  
Precipitation 0.01 in 0.05 in 1.85 in (1975)
Month to date precipitation 0.92  
Year to date precipitation 2.67  
Sea Level Pressure  
Sea Level Pressure 29.75 in    
Wind  
Wind Speed 16 mph (East)    
Max Wind Speed 30 mph    
Max Gust Speed 40 mph    
Visibility 10 miles    
Events Rain    
T = Trace of Precipitation, MM = Missing Value Source: NWS Daily Summary

Daily Weather History Graph

Daily Weather History Graph

Search for Another Location

Airport or City:

Trip Planner

Search our weather history database for the weather conditions in past years. The results will help you decide how hot, cold, wet, or windy it might be!

Date:

Astronomy

Apr. 26, 2014 Rise Set
Actual Time 6:39 AM CDT 8:56 PM CDT
Civil Twilight 6:04 AM CDT 9:30 PM CDT
Nautical Twilight 5:22 AM CDT 10:13 PM CDT
Astronomical Twilight 4:33 AM CDT 11:03 PM CDT
Moon 5:18 AM CDT (4/26) 6:15 PM CDT (4/26)
Length of Visible Light 15h 26m
Length of Day
14h 17m
Waning Crescent, 8% of the Moon is Illuminated
Apr 26
Waning Crescent
Apr 29
New
May 6
First Quarter
May 14
Full
May 21
Last Quarter

Hourly Weather History & Observations

Time (CDT) Temp. Windchill Dew Point Humidity Pressure Visibility Wind Dir Wind Speed Gust Speed Precip Events Conditions
12:15 AM 39.2 °F 32.5 °F 39.2 °F 100% 29.82 in 10.0 mi East 10.4 mph 17.3 mph N/A   Partly Cloudy
12:35 AM 39.2 °F 31.6 °F 39.2 °F 100% 29.83 in 10.0 mi East 12.7 mph 18.4 mph N/A   Mostly Cloudy
12:55 AM 39.2 °F 32.0 °F 39.2 °F 100% 29.83 in 10.0 mi East 11.5 mph 19.6 mph N/A   Overcast
1:15 AM 39.2 °F 31.6 °F 39.2 °F 100% 29.83 in 10.0 mi East 12.7 mph 19.6 mph N/A   Overcast
1:35 AM 39.2 °F 31.2 °F 39.2 °F 100% 29.83 in 10.0 mi East 13.8 mph 17.3 mph N/A   Overcast
1:55 AM 39.2 °F 30.8 °F 39.2 °F 100% 29.82 in 10.0 mi East 15.0 mph 20.7 mph N/A   Overcast
2:15 AM 39.2 °F 31.2 °F 39.2 °F 100% 29.81 in 10.0 mi East 13.8 mph - N/A   Overcast
2:35 AM 39.2 °F 30.5 °F 39.2 °F 100% 29.81 in 10.0 mi East 16.1 mph 23.0 mph N/A   Overcast
2:55 AM 39.2 °F 31.6 °F 39.2 °F 100% 29.81 in 10.0 mi East 12.7 mph 18.4 mph N/A   Overcast
3:15 AM 39.2 °F 30.8 °F 39.2 °F 100% 29.82 in 10.0 mi ESE 15.0 mph 20.7 mph N/A   Overcast
3:35 AM 37.4 °F 28.2 °F 37.4 °F 100% 29.81 in 10.0 mi ESE 16.1 mph 21.9 mph N/A   Overcast
3:55 AM 37.4 °F 27.5 °F 37.4 °F 100% 29.81 in 10.0 mi ESE 18.4 mph 23.0 mph N/A   Overcast
4:15 AM 39.2 °F 30.5 °F 39.2 °F 100% 29.81 in 10.0 mi ESE 16.1 mph 23.0 mph N/A   Overcast
4:35 AM 37.4 °F 28.9 °F 37.4 °F 100% 29.81 in 10.0 mi ESE 13.8 mph 21.9 mph N/A   Overcast
4:55 AM 37.4 °F 29.3 °F 37.4 °F 100% 29.81 in 10.0 mi ESE 12.7 mph - N/A   Overcast
5:15 AM 37.4 °F 28.2 °F 37.4 °F 100% 29.82 in 10.0 mi ESE 16.1 mph 24.2 mph N/A   Overcast
5:35 AM 37.4 °F 27.5 °F 37.4 °F 100% 29.81 in 10.0 mi ESE 18.4 mph 25.3 mph N/A   Overcast
5:55 AM 37.4 °F 27.5 °F 37.4 °F 100% 29.79 in 10.0 mi ESE 18.4 mph 25.3 mph N/A   Overcast
6:15 AM 37.4 °F 27.8 °F 37.4 °F 100% 29.79 in 10.0 mi ESE 17.3 mph 25.3 mph N/A   Overcast
6:55 AM 35.6 °F 26.6 °F 35.6 °F 100% 29.79 in 10.0 mi East 13.8 mph 20.7 mph N/A   Overcast
7:15 AM 35.6 °F 25.9 °F 35.6 °F 100% 29.78 in 10.0 mi East 16.1 mph 23.0 mph N/A   Overcast
7:35 AM 35.6 °F 25.2 °F 35.6 °F 100% 29.78 in 10.0 mi East 18.4 mph - N/A   Overcast
7:55 AM 35.6 °F 25.2 °F 35.6 °F 100% 29.78 in 10.0 mi East 18.4 mph 23.0 mph N/A   Overcast
8:15 AM 35.6 °F 25.2 °F 35.6 °F 100% 29.77 in 10.0 mi East 18.4 mph 23.0 mph N/A   Mostly Cloudy
8:35 AM 37.4 °F 27.5 °F 37.4 °F 100% 29.77 in 10.0 mi ESE 18.4 mph 24.2 mph N/A   Mostly Cloudy
8:55 AM 37.4 °F 27.5 °F 37.4 °F 100% 29.77 in 10.0 mi ESE 18.4 mph 24.2 mph N/A   Scattered Clouds
9:15 AM 39.2 °F 30.2 °F 39.2 °F 100% 29.76 in 10.0 mi ESE 17.3 mph 24.2 mph N/A   Clear
9:35 AM 39.2 °F 29.6 °F 37.4 °F 93% 29.75 in 10.0 mi ESE 19.6 mph 23.0 mph N/A   Partly Cloudy
9:55 AM 39.2 °F 30.2 °F 37.4 °F 93% 29.75 in 10.0 mi ESE 17.3 mph 26.5 mph N/A   Clear
10:15 AM 39.2 °F 30.8 °F 37.4 °F 93% 29.75 in 10.0 mi ESE 15.0 mph 25.3 mph N/A   Clear
10:35 AM 39.2 °F 29.8 °F 39.2 °F 100% 29.76 in 10.0 mi ESE 18.4 mph 23.0 mph N/A   Scattered Clouds
10:55 AM 39.2 °F 31.2 °F 39.2 °F 100% 29.77 in 5.0 mi ESE 13.8 mph - N/A Rain Light Rain
11:15 AM 37.4 °F 28.9 °F 37.4 °F 100% 29.77 in 9.0 mi ESE 13.8 mph 20.7 mph N/A Rain Light Rain
11:35 AM 37.4 °F 28.5 °F 37.4 °F 100% 29.77 in 10.0 mi East 15.0 mph - N/A Rain Light Rain
11:55 AM 37.4 °F 28.5 °F 37.4 °F 100% 29.77 in 10.0 mi East 15.0 mph - 0.01 in   Mostly Cloudy
12:15 PM 37.4 °F 29.3 °F 37.4 °F 100% 29.76 in 10.0 mi East 12.7 mph 20.7 mph N/A   Mostly Cloudy
12:35 PM 39.2 °F 30.5 °F 39.2 °F 100% 29.76 in 10.0 mi East 16.1 mph 19.6 mph N/A   Overcast
12:55 PM 39.2 °F 31.2 °F 39.2 °F 100% 29.75 in 10.0 mi East 13.8 mph 21.9 mph N/A   Overcast
1:15 PM 39.2 °F 32.0 °F 39.2 °F 100% 29.74 in 10.0 mi East 11.5 mph 23.0 mph N/A   Overcast
1:35 PM 39.2 °F 30.5 °F 39.2 °F 100% 29.74 in 10.0 mi East 16.1 mph 24.2 mph N/A   Overcast
1:55 PM 41.0 °F 32.2 °F 41.0 °F 100% 29.73 in 10.0 mi East 18.4 mph 26.5 mph N/A   Overcast
2:15 PM 41.0 °F 31.9 °F 41.0 °F 100% 29.73 in 10.0 mi East 19.6 mph 32.2 mph N/A   Overcast
2:35 PM 41.0 °F 31.9 °F 41.0 °F 100% 29.72 in 10.0 mi East 19.6 mph 31.1 mph N/A   Overcast
2:55 PM 42.8 °F 33.1 °F 42.8 °F 100% 29.72 in 10.0 mi East 25.3 mph 35.7 mph N/A   Overcast
3:15 PM 44.6 °F 36.4 °F 44.6 °F 100% 29.71 in 10.0 mi East 20.7 mph 29.9 mph N/A   Mostly Cloudy
3:35 PM 44.6 °F 35.7 °F 42.8 °F 93% 29.70 in 10.0 mi East 24.2 mph 38.0 mph N/A   Mostly Cloudy
3:55 PM 44.6 °F 35.9 °F 42.8 °F 93% 29.69 in 10.0 mi East 23.0 mph 33.4 mph N/A   Overcast
4:15 PM 46.4 °F 38.1 °F 42.8 °F 87% 29.69 in 10.0 mi East 24.2 mph 35.7 mph N/A   Mostly Cloudy
4:35 PM 46.4 °F 38.5 °F 41.0 °F 81% 29.68 in 10.0 mi East 21.9 mph 40.3 mph N/A   Scattered Clouds
4:55 PM 46.4 °F 38.3 °F 41.0 °F 81% 29.68 in 10.0 mi East 23.0 mph 38.0 mph N/A   Scattered Clouds
5:15 PM 46.4 °F 37.7 °F 41.0 °F 81% 29.68 in 10.0 mi East 26.5 mph 38.0 mph N/A   Mostly Cloudy
5:35 PM 46.4 °F 38.5 °F 39.2 °F 76% 29.68 in 10.0 mi East 21.9 mph 35.7 mph N/A   Overcast
5:55 PM 48.2 °F - 39.2 °F 71% 29.68 in 10.0 mi East 24.2 mph 36.8 mph N/A   Overcast
6:15 PM 48.2 °F - 39.2 °F 71% 29.68 in 10.0 mi East 24.2 mph 36.8 mph N/A   Overcast
6:35 PM 48.2 °F - 39.2 °F 71% 29.68 in 10.0 mi East 23.0 mph 35.7 mph N/A   Mostly Cloudy
6:55 PM 48.2 °F - 37.4 °F 66% 29.68 in 10.0 mi East 29.9 mph 35.7 mph N/A   Mostly Cloudy
7:15 PM 46.4 °F 38.3 °F 37.4 °F 71% 29.68 in 10.0 mi ESE 23.0 mph 35.7 mph N/A   Overcast
7:55 PM 46.4 °F 38.5 °F 39.2 °F 76% 29.70 in 10.0 mi East 21.9 mph 28.8 mph N/A   Overcast
8:15 PM 44.6 °F 36.4 °F 39.2 °F 81% 29.69 in 10.0 mi East 20.7 mph 29.9 mph N/A   Overcast
8:35 PM 44.6 °F 36.6 °F 41.0 °F 87% 29.69 in 10.0 mi East 19.6 mph 31.1 mph N/A   Overcast
9:15 PM 44.6 °F 36.6 °F 39.2 °F 81% 29.70 in 10.0 mi East 19.6 mph 28.8 mph N/A   Overcast
9:35 PM 42.8 °F 34.3 °F 39.2 °F 87% 29.71 in 10.0 mi East 19.6 mph 26.5 mph N/A   Overcast
9:55 PM 42.8 °F 34.8 °F 39.2 °F 87% 29.71 in 10.0 mi East 17.3 mph 25.3 mph N/A   Overcast
10:15 PM 42.8 °F 33.8 °F 39.2 °F 87% 29.71 in 10.0 mi East 21.9 mph 26.5 mph N/A   Overcast
10:35 PM 42.8 °F 34.5 °F 39.2 °F 87% 29.71 in 10.0 mi East 18.4 mph 25.3 mph N/A   Overcast
10:55 PM 42.8 °F 34.8 °F 39.2 °F 87% 29.71 in 10.0 mi East 17.3 mph 25.3 mph N/A   Overcast
11:15 PM 42.8 °F 33.8 °F 39.2 °F 87% 29.70 in 10.0 mi ESE 21.9 mph 28.8 mph N/A   Overcast
11:35 PM 42.8 °F 33.5 °F 39.2 °F 87% 29.69 in 10.0 mi ESE 23.0 mph 33.4 mph N/A   Overcast
11:55 PM 42.8 °F 34.3 °F 39.2 °F 87% 29.69 in 10.0 mi East 19.6 mph 28.8 mph N/A   Overcast